Location: Newark
(20.5800°N, 87.1197°W)
Time: 23:22:28
(UTC+00:00)

N. Korean satellite - Visible Passes

Search period start: 04 August 2020 00:00
Search period end: 14 August 2020 00:00
Orbit: 453 x 506 km, 97.2° (Epoch: 04 August)

Date Brightness Start Highest point End Pass type
(mag) Time Alt. Az. Time Alt. Az. Time Alt. Az.
04 Aug 8.1 10:53:15 10° NNE 10:56:34 39° E 10:59:55 10° S visible
05 Aug 9.5 10:28:28 10° ENE 10:30:41 16° E 10:32:55 10° SE visible
08 Aug 8.8 10:43:18 10° NE 10:46:23 27° E 10:49:30 10° SSE visible
09 Aug 9.8 10:19:17 10° ENE 10:20:28 11° E 10:21:39 10° ESE visible
11 Aug 7.6 10:58:33 10° NNE 11:02:02 50° E 11:05:34 10° S visible
12 Aug 9.4 10:33:28 10° NE 10:36:09 20° E 10:38:51 10° SSE visible
